Edwards, CA

3:32 AM PST on February 22, 2017 (GMT -0800)
Edwards Air Force Base

Weather History for KEDW - February, 2013

Change the Weather History Date:

Saturday, February 23, 2013

  Actual Average Record
Temperature  
Mean Temperature 48 °F -  
Max Temperature 59 °F 58 °F 76 °F (2012)
Min Temperature 36 °F 35 °F 23 °F (2006)
Degree Days  
Heating Degree Days 18    
Moisture  
Dew Point 28 °F    
Average Humidity 43    
Maximum Humidity 69    
Minimum Humidity 29    
Precipitation  
Precipitation 0.00 in - - ()
Sea Level Pressure  
Sea Level Pressure 29.97 in    
Wind  
Wind Speed 17 mph (West)    
Max Wind Speed 37 mph    
Max Gust Speed 51 mph    
Visibility 11 miles    
Events      
Averages and records for this station are not official NWS values.
T = Trace of Precipitation, MM = Missing Value Source: NWS Daily Summary

Daily Weather History Graph

Daily Weather History Graph

Search for Another Location

Airport or City:

Trip Planner

Search our weather history database for the weather conditions in past years. The results will help you decide how hot, cold, wet, or windy it might be!

Date:

Astronomy

Feb. 23, 2013 Rise Set
Actual Time 6:27 AM PST 5:42 PM PST
Civil Twilight 6:02 AM PST 6:07 PM PST
Nautical Twilight 5:32 AM PST 6:37 PM PST
Astronomical Twilight 5:03 AM PST 7:06 PM PST
Moon 3:59 PM PST (2/23) 4:50 AM PST (2/23)
Length of Visible Light 12h 05m
Length of Day
11h 14m
Waxing Gibbous, 96% of the Moon is Illuminated
Feb 23
Waxing Gibbous
Feb 25
Full
Mar 4
Last Quarter
Mar 11
New
Mar 19
First Quarter

Hourly Weather History & Observations

Time (PST) Temp. Windchill Dew Point Humidity Pressure Visibility Wind Dir Wind Speed Gust Speed Precip Events Conditions
12:58 AM 36.9 °F 31.4 °F 27.7 °F 69% 30.11 in 10.0 mi SSW 6.9 mph - N/A   Clear
1:58 AM 36.0 °F 27.5 °F 24.8 °F 64% 30.08 in 10.0 mi SSW 12.7 mph - N/A   Clear
2:58 AM 37.4 °F 30.3 °F 25.2 °F 61% 30.06 in 10.0 mi WSW 10.4 mph - N/A   Clear
3:51 AM 46.4 °F 40.4 °F 26.6 °F 46% 30.05 in 10.0 mi SW 13.8 mph - N/A   Clear
3:58 AM 45.9 °F 40.4 °F 26.1 °F 46% 30.04 in 10.0 mi SW 11.5 mph - N/A   Clear
4:58 AM 43.3 °F 39.9 °F 23.5 °F 46% 30.02 in 10.0 mi South 5.8 mph - N/A   Clear
5:58 AM 43.5 °F 35.8 °F 26.2 °F 51% 30.01 in 90.0 mi SSW 17.3 mph - N/A   Mostly Cloudy
6:12 AM 44.6 °F 37.8 °F 26.6 °F 49% 30.01 in 90.0 mi SW 15.0 mph 24.2 mph N/A   Mostly Cloudy
6:25 AM 46.4 °F 38.7 °F 24.8 °F 43% 30.00 in 90.0 mi SW 20.7 mph 28.8 mph N/A   Mostly Cloudy
6:39 AM 48.2 °F - 26.6 °F 43% 30.00 in 90.0 mi West 26.5 mph 36.8 mph N/A   Mostly Cloudy
6:58 AM 50.0 °F - 27.0 °F 41% 29.99 in 90.0 mi WSW 12.7 mph 34.5 mph N/A   Mostly Cloudy
7:03 AM 50.0 °F - 26.6 °F 40% 30.01 in 90.0 mi SW 19.6 mph 34.5 mph N/A   Mostly Cloudy
7:59 AM 49.3 °F - 27.9 °F 44% 29.99 in 90.0 mi West 26.5 mph 33.4 mph N/A   Mostly Cloudy
8:58 AM 53.2 °F - 28.4 °F 38% 30.03 in 90.0 mi SW 16.1 mph - N/A   Mostly Cloudy
9:58 AM 56.3 °F - 28.8 °F 35% 30.02 in 90.0 mi West 21.9 mph 31.1 mph N/A   Mostly Cloudy
10:58 AM 59.0 °F - 30.9 °F 35% 30.00 in 90.0 mi West 20.7 mph - N/A   Scattered Clouds
11:23 AM 59.0 °F - 30.2 °F 34% 29.98 in 90.0 mi West 26.5 mph 34.5 mph N/A   Scattered Clouds
11:58 AM 59.0 °F - 31.6 °F 36% 29.96 in 70.0 mi WNW 27.6 mph 36.8 mph N/A   Partly Cloudy
12:58 PM 59.4 °F - 31.5 °F 35% 29.94 in 20.0 mi WNW 26.5 mph 32.2 mph N/A   Partly Cloudy
1:58 PM 59.4 °F - 30.7 °F 34% 29.93 in 20.0 mi WNW 15.0 mph 25.3 mph N/A   Partly Cloudy
2:53 PM 59.0 °F - 26.6 °F 29% 29.87 in 15.0 mi WNW 32.2 mph 40.3 mph N/A   Scattered Clouds
2:58 PM 58.8 °F - 26.6 °F 29% 29.87 in 15.0 mi NW 32.2 mph 40.3 mph N/A   Scattered Clouds
3:53 PM 55.4 °F - 28.4 °F 36% 29.84 in 6.0 mi West 36.8 mph 50.6 mph N/A   Widespread Dust
3:58 PM 55.9 °F - 28.8 °F 35% 29.83 in 6.0 mi West 34.5 mph 50.6 mph N/A   Widespread Dust
4:06 PM 55.4 °F - 28.4 °F 36% 29.86 in 7.0 mi West 33.4 mph 46.0 mph N/A   Scattered Clouds
4:37 PM 53.6 °F - 30.2 °F 41% 29.87 in 10.0 mi West 33.4 mph 39.1 mph N/A   Scattered Clouds
4:58 PM 52.9 °F - 30.4 °F 42% 29.87 in 15.0 mi West 28.8 mph 42.6 mph N/A   Scattered Clouds
5:09 PM 51.8 °F - 30.2 °F 44% 29.93 in 15.0 mi NW 19.6 mph 31.1 mph N/A   Scattered Clouds
5:58 PM 50.9 °F - 30.9 °F 46% 29.92 in 10.0 mi West 16.1 mph - N/A   Partly Cloudy
5:59 PM 50.0 °F - 32.0 °F 50% 29.92 in 10.0 mi WSW 17.3 mph - N/A   Clear
6:05 PM 50.0 °F - 28.4 °F 43% 29.94 in 10.0 mi West 12.7 mph 21.9 mph N/A   Clear
6:06 PM 50.0 °F - 28.4 °F 43% 29.94 in 10.0 mi West 11.5 mph 21.9 mph N/A   Clear
6:58 PM 49.1 °F - 28.2 °F 44% 29.95 in 10.0 mi West 13.8 mph - N/A   Clear
7:58 PM 47.8 °F - 28.2 °F 47% 29.97 in 10.0 mi NW 18.4 mph 24.2 mph N/A   Clear
8:58 PM 46.4 °F 41.5 °F 26.8 °F 46% 30.02 in 10.0 mi NNW 10.4 mph - N/A   Clear
9:58 PM 43.0 °F 38.2 °F 24.3 °F 48% 30.05 in 10.0 mi North 8.1 mph - N/A   Clear
10:58 PM 41.4 °F 35.2 °F 26.6 °F 56% 30.07 in 10.0 mi NNE 10.4 mph - N/A   Clear
11:58 PM 41.4 °F 36.2 °F 16.9 °F 37% 30.09 in 10.0 mi North 8.1 mph - N/A   Clear